Location: Chenango Forks
(42.2242°N, 75.8278°W)
Time: 09:49:40
(UTC-04:00)

Daily predictions for brighter satellites

Satellite Brightness Start Highest point End
(mag) Time Altitude Azimuth Time Altitude Azimuth Time Altitude Azimuth
EO 1 Delta rocket 4.5 20:10:16 10° NNE 20:14:35 37° E 20:19:20 10° SSE
Helios 1A 3.6 20:10:43 10° S 20:14:50 61° W 20:18:59 10° NNW
NOSS 3-4 (A) 4.1 20:08:08 10° NNW 20:15:00 56° NE 20:22:14 10° SE
NOSS 3-4 (C) 4.1 20:08:15 10° NNW 20:15:07 56° NE 20:22:21 10° SE
Cosmos 1892 Rocket 3.9 20:11:05 10° N 20:15:27 50° E 20:19:48 10° SSE
Cosmos 1809 Rocket 4.5 20:09:53 10° S 20:16:00 72° E 20:22:08 10° NNE
BREEZE-M DEB (TANK) 4.4 20:15:09 10° NW 20:17:48 31° NNE 20:23:47 10° E
Okean 2 3.8 20:14:13 10° N 20:18:14 44° ENE 20:22:13 10° SSE
Resurs 1-3 3.8 20:14:09 10° S 20:18:31 77° WSW 20:22:56 10° NNW
Cosmos 1025 Rocket 3.1 20:16:39 10° N 20:21:03 88° W 20:25:23 10° S
Cosmos 2219 3.7 20:16:03 10° NNW 20:21:37 63° WSW 20:27:09 10° S
Cosmos 2239 Rocket 4.5 20:15:59 10° S 20:22:11 70° E 20:28:21 10° NNE
Cosmos 1455 Rocket 3.6 20:18:19 10° SSE 20:22:18 37° E 20:26:20 10° NNE
Cosmos 1975 4.3 20:21:50 10° SE 20:24:44 19° E 20:27:38 10° NE
Spot 2 Rocket 4.4 20:19:48 10° S 20:24:47 53° W 20:29:46 10° NNW
Cosmos 1656 Rocket 4.4 20:20:34 10° SW 20:26:05 60° WNW 20:31:34 10° NNE
Cosmos 1570 Rocket 4.2 20:23:20 10° S 20:28:26 49° ESE 20:33:30 10° NNE
Resurs 01 Rocket 3.1 20:29:01 10° SSW 20:33:11 40° W 20:37:23 10° NNW
Meteor 2-4 Rocket 4.0 20:27:52 10° NNW 20:33:43 83° W 20:39:38 10° S
Cosmos 1934 Rocket 4.0 20:27:43 10° S 20:33:45 67° E 20:39:56 10° NNE
Cosmos 1461 3.6 20:30:04 10° NNW 20:33:55 37° NE 20:37:13 12° ESE
Lacrosse 5 rocket 2.4 20:31:23 10° NNW 20:34:40 28° NNE 20:37:38 11° E
Envisat 4.1 20:31:08 10° ESE 20:35:19 27° ENE 20:39:32 10° N
Cosmos 1315 Rocket 3.9 20:32:25 10° SSW 20:36:18 50° WNW 20:40:16 10° N
Cosmos 2278 3.9 20:34:31 10° S 20:39:57 50° ESE 20:45:26 10° NE
Cosmos 1697 Rocket 4.0 20:36:57 10° SE 20:40:38 18° E 20:44:21 10° ENE
Tiangong 1 0.9 20:39:02 10° WSW 20:42:07 81° S 20:44:50 13° E
DELTA 2 R/B (1) 3.6 20:38:41 10° W 20:44:13 68° S 20:49:03 14° E
CZ-4 DEB 3.5 20:42:05 14° SE 20:44:27 33° ENE 20:47:19 10° N
NOSS 7 (E) 4.5 20:42:51 10° SSW 20:46:20 54° ESE 20:49:40 10° NE
USA 186 1.7 20:45:25 10° S 20:48:35 79° W 20:51:34 10° NNW
H-2A R/B 3.1 20:46:30 10° S 20:50:20 69° W 20:54:16 10° NNW
OTV 4 1.3 20:48:08 10° WSW 20:50:53 34° S 20:52:22 21° SE
Cosmos 2369 3.8 20:47:19 10° S 20:52:49 56° ESE 20:58:23 10° NNE
ATLAS CENTAUR R/B 4.1 20:50:32 10° WSW 20:54:47 27° NW 20:58:58 10° NNE
Iridium 4 Rocket 3.7 20:50:15 10° N 20:55:18 47° E 20:59:34 12° SSE
Cosmos 1939 Rocket 3.6 20:52:33 16° SE 20:55:24 38° ENE 20:59:16 10° N
Cosmos 1544 Rocket 4.0 20:51:33 10° SSW 20:55:52 66° W 21:00:16 10° N
OAO 2 Rocket 4.4 20:57:33 10° SW 21:01:48 27° SSE 21:03:59 20° SE
SJ-11-01 4.3 20:57:41 12° SSE 21:02:02 64° ENE 21:06:41 10° N
Cosmos 1980 Rocket 3.6 21:02:28 16° E 21:02:28 16° E 21:05:45 10° ENE
Cosmos 1898 Rocket 4.0 21:06:50 10° N 21:11:54 42° ENE 21:14:35 24° ESE
ERS-1 Rocket 2.9 21:07:31 14° SSE 21:11:54 75° ENE 21:16:56 10° N
Cosmos 1605 Rocket 4.1 21:10:23 10° S 21:16:44 82° W 21:23:04 10° N
Cosmos 1346 Rocket 3.8 21:13:22 10° NNW 21:17:08 45° W 21:20:56 10° SSW
Cosmos 2061 Rocket 4.4 21:15:45 17° SSE 21:20:18 43° E 21:26:09 10° NNE
RESURS DK-1 3.6 21:18:58 10° N 21:22:27 25° NE 21:23:22 23° ENE
Cosmos 2100 Rocket 4.2 21:17:20 13° SSE 21:22:39 49° E 21:28:37 10° NNE
Cosmos 2227 Rocket 2.5 21:22:29 10° NNW 21:28:06 65° WSW 21:32:23 17° S
MetOp-B 4.5 21:28:49 30° SE 21:31:04 48° ENE 21:36:13 10° N
Cosmos 468 Rocket 4.0 21:29:32 13° S 21:33:58 53° ESE 21:38:58 10° NNE
Cosmos 1500 3.0 21:34:20 31° S 21:36:00 81° E 21:39:47 10° N
Cosmos 1825 Rocket 3.9 21:33:22 10° N 21:37:38 44° ENE 21:38:16 41° ESE
BREEZE-M DEB (TANK) 3.8 21:24:54 10° SW 21:39:57 68° SSE 21:42:55 25° ENE
Cosmos 2082 4.2 21:35:13 10° NNW 21:40:42 54° WSW 21:44:33 19° S
Cosmos 1814 Rocket 4.1 21:37:53 23° S 21:40:59 53° ESE 21:46:09 10° NNE
Cosmos 1656 3.5 21:35:44 10° SSW 21:41:21 79° ESE 21:46:56 10° NNE
Cosmos 972 Rocket 4.4 21:38:08 10° NNW 21:43:55 66° ENE 21:46:40 35° SE
Cosmos 2297 Rocket 2.4 21:38:22 10° NNW 21:43:59 68° WSW 21:47:09 26° S
USA 215 3.8 21:42:02 24° E 21:45:43 48° NNE 21:51:57 10° NW
Cosmos 1953 Rocket 4.1 21:41:40 10° N 21:45:52 40° ENE 21:45:59 40° E
Lacrosse 5 2.3 21:45:16 10° NW 21:50:14 51° NE 21:51:36 39° E
H-2A R/B 1.9 21:49:23 46° S 21:50:31 79° WSW 21:54:40 10° NNW
Cosmos 1340 3.2 21:48:18 10° N 21:51:29 44° NE 21:51:29 44° NE
SPOT 5 2.9 21:52:32 40° SSE 21:54:25 89° ENE 21:59:21 10° NNW
deb Chang Zheng 4 3.6 21:50:01 10° NNE 21:54:30 81° WNW 21:57:05 25° SSW
Cosmos 858 Rocket 4.4 21:52:59 10° NNW 21:58:18 86° WSW 21:59:55 46° SSE
Cosmos 1725 Rocket 4.4 21:57:36 40° ESE 21:58:19 41° E 22:04:06 10° NNE
Cosmos 2298 Rocket 4.2 21:53:37 10° NNW 21:58:55 70° WSW 22:00:56 38° S
Cosmos 1459 Rocket 3.9 21:59:01 20° S 22:03:21 86° W 22:09:29 10° N
Cosmos 1758 Rocket 3.8 22:00:54 10° N 22:04:48 52° ENE 22:04:48 52° ENE
Cosmos 1743 2.7 22:06:26 80° WNW 22:06:26 80° WNW 22:10:20 10° N
H-2A R/B 2.8 22:10:13 34° ENE 22:10:13 34° ENE 22:14:27 10° N
YAOGAN 6 3.0 22:12:13 62° WNW 22:12:13 62° WNW 22:15:31 10° NNW
Lacrosse 5 rocket 2.4 22:10:33 10° WNW 22:13:22 33° WSW 22:13:22 33° WSW
Envisat 4.2 22:11:14 20° SSW 22:14:09 38° W 22:18:53 10° NNW
GEOS 3 Rocket 3.9 22:11:08 10° NE 22:15:07 49° ENE 22:15:07 49° ENE
Cosmos 2098 Rocket 4.1 22:14:26 46° SSE 22:16:29 66° E 22:22:36 10° NNE
MetOp-A 4.4 22:15:53 42° SSW 22:17:34 64° WSW 22:22:55 10° NNW
Tiangong 1 3.4 22:15:34 10° W 22:16:48 22° W 22:16:48 22° W
Cosmos 1937 Rocket 3.6 22:14:53 10° NNW 22:20:07 70° WSW 22:21:02 57° SSW
Landsat 7 4.3 22:24:23 48° NE 22:24:23 48° NE 22:28:26 10° N
Cosmos 1697 Rocket 3.0 22:18:25 10° SW 22:24:01 64° WNW 22:29:40 10° NNE
Cosmos 1842 4.3 22:20:06 10° N 22:22:45 40° N 22:22:45 40° N
Cosmos 2058 Rocket 3.7 22:25:44 50° NNE 22:25:44 50° NNE 22:29:10 10° NNE
Cosmos 1802 Rocket 4.2 22:20:59 24° SSW 22:24:58 70° W 22:31:25 10° N
SL-16 R/B 4.0 22:29:58 18° NE 22:29:58 18° NE 22:31:43 10° NE
Cosmos 2233 Rocket 4.5 22:27:57 42° ENE 22:27:57 42° ENE 22:33:09 10° NNE
CZ-4 R/B 4.5 22:23:14 10° NNE 22:26:35 43° NE 22:26:35 43° NE
SPOT 1/Viking Rocket 3.5 22:28:06 68° SSW 22:28:40 77° WSW 22:33:55 10° NNW
DELTA 2 R/B (1) 4.1 22:25:05 10° W 22:29:48 45° SW 22:29:48 45° SW
NOAA 11 4.1 22:29:44 68° S 22:30:25 81° WSW 22:35:56 10° NNW
ASTEX 1 3.9 22:26:55 10° N 22:31:50 58° W 22:33:04 44° SW
SL-08 R/B 4.4 22:30:45 51° SSW 22:32:30 86° W 22:38:44 10° N
Cosmos 2084 4.5 22:30:13 10° NW 22:33:22 39° W 22:33:22 39° W
SL-08 RB Rocket 3.9 22:35:12 73° NNW 22:35:12 73° NNW 22:39:26 10° NNW
Meteor 1-15 Rocket 4.2 22:35:41 72° E 22:35:41 72° E 22:41:33 10° NNE
Cosmos 990 Rocket 4.1 22:32:24 10° NNW 22:37:37 66° WSW 22:37:48 65° WSW
Cosmos 1606 Rocket 4.2 22:38:14 50° W 22:38:16 50° WNW 22:42:35 10° N
Terra 2.6 22:40:15 42° NNE 22:40:15 42° NNE 22:43:48 10° N
CZ-4B R/B 3.6 22:39:44 10° N 22:44:02 67° NNW 22:44:02 67° NNW
Cosmos 1980 Rocket 2.4 22:44:07 48° SW 22:45:38 70° WNW 22:51:21 10° NNE
Cosmos 2016 Rocket 4.4 22:43:28 33° SW 22:46:06 56° W 22:52:11 10° N
ARGOS 3.5 22:49:32 54° WSW 22:49:52 55° W 22:55:10 10° NNW
Cosmos 1125 Rocket 3.9 22:55:03 10° NNW 22:59:15 58° N 22:59:15 58° N
RESURS DK-1 4.3 22:56:54 10° NW 22:59:18 25° WNW 22:59:18 25° WNW
Cosmos 1763 Rocket 4.2 23:04:52 47° WNW 23:05:06 48° WNW 23:10:01 10° N
Tsikada Rocket 4.4 23:05:41 10° NNW 23:11:56 56° W 23:12:34 53° WSW
Cosmos 2263 Rocket 3.0 23:10:25 10° NNW 23:14:41 43° NNE 23:14:41 43° NNE
Cosmos 2322 Rocket 3.2 23:18:34 38° NNE 23:18:34 38° NNE 23:21:59 10° NNE
USA 215 3.6 23:29:23 56° WSW 23:29:23 56° WSW 23:35:05 10° NW
Lacrosse 5 3.9 23:28:36 10° WNW 23:30:48 21° W 23:30:48 21° W
H-2A R/B 3.8 23:50:52 24° WNW 23:50:52 24° WNW 23:53:41 10° NW
Cosmos 2278 Rocket 4.5 23:53:20 10° NNE 23:56:25 15° NE 23:56:45 15° NE
